Dewpoint
14 13 16 34 43 49 48 47 51 53 55 57 55 53 56 60 59 59 59 60 57 54 60 62 64 66 66 66 66 66 66 68 68 65 67 67 66 69 69 66 69 69 69 71
12 11 13 27 35 49 47 48 49 52 53 55 56 55 56 59 58 58 59 59 61 58 56 55 61 65 66 66 66 66 67 68 69 68 68 67 67 69 68 68 68 72 70 66
11 9 14 15 18 45 48 48 47 48 53 55 53 52 55 57 58 59 60 60 61 61 59 55 59 62 64 62 64 67 68 68 68 70 70 70 68 68 69 69 70 71 71 70
12 12 10 10 14 40 44 47 46 51 52 47 53 45 52 54 56 57 57 58 61 62 62 59 57 58 59 60 66 68 68 69 70 70 68 67 65 64 66 69 69 70 71 68
23 18 19 15 18 24 30 47 46 51 49 49 52 47 47 54 53 55 56 56 61 61 61 61 60 59 60 60 64 67 68 68 70 70 68 68 67 67 68 68 69 67 70 70
23 20 20 19 21 22 36 45 43 50 47 41 44 48 45 51 52 53 55 56 58 61 61 62 61 62 61 61 64 68 68 68 70 71 69 68 68 68 67 70 69 67 68 70
21 20 19 20 19 18 19 22 21 23 25 34 44 49 48 56 57 58 53 55 58 59 61 62 61 63 64 62 65 67 68 67 70 70 69 69 68 68 66 69 69 68 70 69
19 16 19 17 16 15 23 19 21 19 23 26 43 41 49 55 59 60 59 54 58 58 60 62 61 63 64 65 64 68 67 68 70 70 68 69 69 70 68 68 68 69 68 69
17 16 19 18 15 14 11 10 18 17 29 29 39 50 54 54 51 55 57 57 57 57 59 62 62 62 64 66 66 67 69 69 69 69 69 69 69 70 69 70 69 67 67 69
18 14 18 19 16 14 10 11 8 22 29 31 41 45 45 49 52 56 56 57 58 57 59 60 62 64 64 66 66 68 70 68 69 68 70 70 69 69 70 69 68 68 69 69
28 16 15 24 23 16 30 35 32 29 36 31 34 41 50 50 53 53 56 60 57 56 60 62 62 66 65 64 67 68 70 69 70 69 70 70 70 70 70 70 68 68 70 70
34 22 27 27 37 41 41 41 38 35 37 40 39 41 50 53 54 55 59 62 60 56 62 65 64 66 66 67 67 68 69 69 70 70 70 70 69 70 70 69 70 69 70 70
33 24 25 28 34 37 38 40 39 39 41 37 37 38 49 50 52 58 61 62 62 61 63 65 65 65 67 66 65 65 68 70 67 68 69 68 69 70 70 70 69 71 70 71
37 32 30 28 35 37 36 37 39 39 39 38 40 42 46 52 56 59 61 60 62 63 64 64 65 65 66 66 66 65 66 67 67 68 68 68 67 67 68 69 69 70 71 70
27 35 37 38 40 41 40 38 40 38 40 37 39 41 47 51 56 57 60 60 60 62 63 64 64 64 66 65 65 65 66 65 67 69 68 66 66 65 65 67 68 70 71 70
31 39 39 39 41 41 39 39 42 41 41 42 43 44 51 52 58 57 59 57 57 60 61 64 64 64 65 65 65 65 65 65 66 68 68 68 67 65 65 68 69 69 69 70
30 40 32 33 42 41 32 41 43 44 46 46 41 45 53 49 53 56 58 61 61 63 64 63 64 64 65 66 66 65 64 66 66 68 68 67 67 65 66 68 68 69 69 68
21 30 38 36 39 28 33 42 45 45 46 47 49 53 55 56 54 59 59 59 61 62 63 64 66 66 66 67 67 66 65 66 68 67 67 67 65 65 66 68 68 68 67 66
28 31 40 36 37 36 41 45 43 43 44 49 52 53 56 59 59 59 61 62 61 62 64 65 66 66 65 65 67 67 67 67 67 67 67 67 66 67 67 67 67 68 66 64
35 35 33 34 33 32 41 43 47 45 41 52 53 53 54 55 52 57 61 62 62 63 64 65 64 64 64 64 65 66 66 67 66 66 66 67 67 67 66 66 65 64 64 61
31 37 33 37 34 38 44 46 48 39 41 52 54 54 53 53 55 58 62 61 62 62 62 63 63 62 62 63 64 63 64 64 64 65 65 66 65 65 64 64 64 63 62 60
28 35 35 37 36 35 49 50 43 46 51 53 53 54 56 57 58 61 62 61 61 61 61 62 62 61 61 62 62 62 61 63 64 64 64 64 64 64 64 63 63 61 60 60
27 36 37 38 40 49 48 48 51 50 51 55 54 57 54 53 54 60 60 60 60 60 61 61 61 61 60 61 61 61 62 62 62 62 62 62 62 62 62 61 61 61 60 60
41 41 37 38 42 47 48 50 51 52 53 55 53 59 55 54 59 59 59 60 60 60 60 60 61 61 61 61 61 61 62 62 61 61 61 61 57 49 48 45 44 45 48 59
37 35 29 33 42 48 49 49 51 53 53 51 52 56 59 59 58 58 59 59 59 60 60 60 60 60 60 61 61 62 61 60 59 60 59 56 48 43 41 42 42 41 42 44
37 36 33 32 39 41 45 48 50 51 53 49 54 55 59 58 57 58 58 58 58 59 59 57 59 59 60 60 61 60 59 59 58 58 58 56 50 44 39 39 41 44 43 43
Lifted_Index
6 5 3 2 1 0 -0 -1 -2 -2 -2 -3 -2 -1 -1 -0 0 0 -0 -0 0 0 -1 -1 -2 -3 -3 -3 -2 -3 -3 -3 -3 -2 -2 -2 -2 -2 -1 -1 -2 -2 -2 -2
5 4 3 2 1 -0 -1 -2 -2 -2 -2 -3 -2 -1 -1 -0 0 0 -0 -0 -0 0 -0 -1 -1 -2 -2 -3 -3 -3 -3 -3 -3 -3 -2 -2 -2 -2 -1 -1 -2 -3 -3 -3
5 4 4 3 1 -1 -2 -2 -2 -2 -2 -2 -2 -2 -1 -1 -0 0 0 -0 -0 -0 -0 -0 -1 -1 -2 -2 -2 -3 -3 -3 -3 -3 -3 -2 -2 -2 -2 -2 -3 -3 -3 -3
5 4 4 3 2 -0 -1 -2 -3 -3 -3 -2 -2 -2 -1 -1 -1 -1 -0 -0 -1 -1 -1 -0 -0 -1 -1 -1 -2 -2 -3 -3 -3 -4 -3 -3 -2 -2 -2 -2 -3 -3 -3 -4
5 4 4 3 2 1 -1 -2 -3 -4 -3 -2 -2 -2 -1 -1 -1 -1 -1 -1 -1 -1 -1 -1 -1 -1 -1 -1 -1 -2 -3 -3 -4 -4 -4 -3 -2 -2 -2 -3 -3 -3 -3 -4
3 3 3 2 2 1 0 -1 -2 -3 -2 -2 -2 -2 -2 -2 -2 -2 -1 -1 -1 -1 -1 -1 -1 -1 -1 -1 -1 -2 -3 -3 -4 -4 -4 -3 -3 -3 -3 -3 -3 -3 -3 -3
3 2 2 1 2 2 1 0 -0 -1 -1 -1 -2 -2 -2 -2 -2 -2 -1 -0 -0 -1 -1 -1 -1 -1 -2 -2 -2 -3 -3 -3 -4 -4 -4 -4 -4 -3 -3 -3 -3 -3 -3 -3
2 1 1 1 2 2 2 2 1 0 -0 -1 -2 -2 -2 -2 -3 -2 -2 -1 -0 -1 -1 -1 -1 -2 -2 -3 -3 -3 -3 -4 -4 -4 -4 -4 -4 -3 -3 -3 -3 -3 -2 -2
2 1 1 1 2 2 2 2 1 1 0 -1 -2 -2 -2 -2 -2 -2 -2 -2 -1 -1 -1 -1 -1 -2 -2 -3 -3 -3 -4 -4 -4 -4 -4 -4 -4 -3 -3 -3 -3 -3 -2 -2
1 1 1 1 1 1 1 1 1 0 -0 -1 -2 -2 -2 -1 -1 -2 -2 -2 -2 -1 -1 -1 -1 -2 -2 -2 -3 -4 -4 -4 -4 -4 -4 -4 -3 -3 -3 -3 -3 -3 -3 -3
1 1 1 0 0 0 0 -0 -0 -1 -1 -2 -2 -2 -1 -1 -1 -1 -2 -2 -2 -1 -1 -1 -1 -2 -2 -2 -3 -4 -4 -4 -4 -4 -3 -4 -4 -3 -3 -3 -3 -3 -3 -3
1 1 1 0 -0 -0 -0 -1 -1 -2 -2 -2 -1 -1 -0 -0 -1 -1 -2 -3 -2 -1 -1 -2 -2 -2 -2 -2 -2 -3 -4 -4 -4 -3 -3 -4 -3 -3 -3 -3 -3 -3 -3 -3
1 1 1 0 -0 -0 -0 -0 -1 -1 -2 -1 -1 -0 -0 -1 -1 -2 -3 -3 -2 -2 -2 -2 -2 -2 -2 -2 -2 -2 -3 -3 -3 -3 -3 -3 -3 -3 -3 -3 -3 -3 -3 -3
1 1 0 0 -0 -1 -1 -0 -0 -0 -1 -1 -0 -0 -1 -2 -2 -3 -3 -3 -2 -2 -2 -2 -2 -2 -1 -1 -1 -1 -1 -1 -2 -2 -3 -3 -3 -3 -3 -3 -3 -3 -4 -4
0 -0 -1 -1 -1 -1 -1 -0 -0 -0 0 0 -0 -0 -1 -2 -3 -3 -2 -2 -2 -2 -2 -2 -2 -1 -1 -1 -1 -1 -1 -1 -0 -1 -2 -2 -3 -3 -3 -3 -3 -3 -3 -3
-0 -1 -1 -1 -1 -1 -0 -0 -0 -0 0 0 -0 -0 -1 -2 -3 -2 -2 -2 -2 -2 -2 -2 -1 -1 -1 -0 -0 -0 -0 -0 0 0 -1 -1 -2 -2 -2 -2 -3 -3 -3 -3
-0 -1 -1 -1 -1 -0 -0 -1 -1 -0 -0 -0 -0 -1 -1 -2 -3 -2 -2 -2 -2 -2 -1 -1 -1 -1 -1 -0 -0 -0 -0 -0 -0 -0 -0 -1 -1 -1 -1 -1 -2 -2 -2 -2
0 -1 -1 -1 -1 -1 -1 -1 -1 -0 -0 -0 -0 -1 -1 -2 -2 -2 -2 -2 -2 -2 -1 -1 -1 -1 -1 -1 -1 -0 -0 -0 -0 -1 -1 -1 -1 -1 -1 -1 -1 -2 -1 -1
0 -0 -1 -1 -1 -1 -2 -2 -1 -1 -0 -0 -1 -1 -2 -2 -2 -2 -2 -2 -2 -2 -2 -2 -2 -2 -1 -1 -1 -1 -1 -1 -1 -1 -1 -1 -1 -1 -1 -1 -1 -1 -1 -1
-0 -0 -1 -1 -1 -1 -1 -2 -1 -1 -0 -1 -1 -2 -2 -2 -2 -3 -3 -3 -3 -3 -3 -2 -2 -2 -2 -2 -1 -1 -1 -1 -1 -1 -1 -1 -1 -1 -1 -1 -1 -1 -1 -1
-0 -0 -0 -0 -1 -1 -1 -1 -1 -1 -0 -0 -0 -1 -1 -2 -2 -2 -3 -3 -3 -3 -3 -3 -2 -2 -2 -2 -2 -2 -2 -2 -2 -1 -2 -2 -2 -2 -2 -2 -2 -1 -1 -1
-0 -0 -0 0 0 -0 -1 -1 -1 -1 -0 0 0 0 0 0 -1 -2 -2 -3 -3 -2 -2 -2 -2 -2 -2 -2 -2 -2 -2 -2 -2 -2 -3 -3 -3 -3 -3 -2 -2 -1 -1 -1
0 0 0 0 0 0 -1 -1 -2 -1 -1 0 0 1 1 1 0 -1 -2 -2 -2 -2 -2 -2 -2 -2 -2 -2 -2 -2 -2 -2 -2 -2 -3 -3 -3 -3 -3 -2 -1 -1 -0 0
-0 -0 0 0 0 -0 -1 -1 -1 -2 -1 -0 -0 -0 0 0 -1 -1 -2 -1 -1 -1 -1 -1 -1 -1 -1 -1 -1 -1 -1 -1 -2 -2 -2 -2 -2 -2 -2 -2 -1 -0 0 1
-0 -0 -0 -0 -0 -1 -1 -1 -1 -1 -1 -1 -1 -2 -2 -2 -2 -2 -1 -1 -1 -1 -0 -0 -0 -0 -0 -0 -1 -1 -1 -0 -1 -1 -1 -1 -0 -0 -0 -0 -0 1 2 2
-0 -0 -0 -0 -1 -1 -1 -1 -1 -1 -2 -2 -2 -3 -3 -3 -2 -2 -2 -1 -1 -1 -0 0 0 0 0 0 0 0 0 0 0 -0 -0 -0 0 1 1 1 1 2 2 3